Location: Strohbehn Observatory
(42.4649°N, 93.8239°W)
Time: 06:07:45
(UTC-05:00)

SL-16 R/B - Visible Passes

Search period start: 30 May 2017 00:00
Search period end: 09 June 2017 00:00
Orbit: 843 x 846 km, 71.0° (Epoch: 29 May)

Date Brightness Start Highest point End Pass type
(mag) Time Alt. Az. Time Alt. Az. Time Alt. Az.
30 May 4.3 01:37:03 10° WNW 01:39:17 13° W 01:39:17 13° W visible
30 May 4.3 21:53:36 10° N 21:56:53 15° NE 22:00:10 10° E visible
30 May 2.1 23:36:11 10° NNW 23:41:54 84° ENE 23:43:28 50° SSE visible
31 May 4.3 01:22:36 10° WNW 01:25:10 13° W 01:25:20 13° W visible
31 May 4.3 21:39:25 10° N 21:42:35 15° NE 21:45:45 10° E visible
31 May 2.1 23:21:55 10° NNW 23:27:38 81° ENE 23:29:33 44° SSE visible
01 Jun 4.2 01:08:10 10° WNW 01:10:57 14° W 01:11:25 14° WSW visible
01 Jun 4.3 21:25:15 10° NNE 21:28:18 14° NE 21:31:21 10° ENE visible
01 Jun 2.2 23:07:40 10° NNW 23:13:23 79° ENE 23:15:39 38° SE visible
02 Jun 4.2 00:53:46 10° WNW 00:56:43 15° W 00:57:31 14° WSW visible
02 Jun 2.2 22:53:25 10° NNW 22:59:08 76° ENE 23:01:48 33° SE visible
03 Jun 4.2 00:39:22 10° WNW 00:42:30 15° W 00:43:40 14° WSW visible
03 Jun 2.2 22:39:11 10° NNW 22:44:52 73° ENE 22:47:58 28° SE visible
04 Jun 4.2 00:25:00 10° WNW 00:28:16 16° W 00:29:50 14° WSW visible
04 Jun 2.3 22:24:55 10° NNW 22:30:36 71° ENE 22:34:11 23° SE visible
05 Jun 4.2 00:10:37 10° WNW 00:14:02 16° W 00:16:03 14° WSW visible
05 Jun 2.3 22:10:40 10° NNW 22:16:20 68° ENE 22:20:25 19° SE visible
05 Jun 4.2 23:56:15 10° WNW 23:59:49 17° W 00:02:18 13° SW visible
06 Jun 2.3 21:56:25 10° NNW 22:02:05 66° ENE 22:06:42 16° SE visible
06 Jun 4.2 23:41:54 10° WNW 23:45:35 18° W 23:48:35 12° SW visible
07 Jun 2.4 21:42:11 10° NNW 21:47:50 63° ENE 21:53:01 12° SE visible
07 Jun 4.2 23:27:33 10° WNW 23:31:21 19° W 23:34:54 11° SW visible
08 Jun 2.4 21:27:55 10° NNW 21:33:34 61° ENE 21:39:09 10° SE visible
08 Jun 4.2 23:13:12 10° NW 23:17:07 19° W 23:21:01 10° SW visible
